Regional Weather Roundup
Issued by NWS Tiyan, Guam

Home | Current Version | Previous Version | Text Only | Print | Product List | Glossary On
Versions: 1 2 3 4 5 6 7 8 9 10 11 12 13 14 15 16 17 18 19 20 21 22 23 24 25 26 27 28 29 30 31 32 33 34 35 36 37 38 39 40 41 42 43 44 45 46 47 48 49 50
000
ASGM40 PGUM 210212
RWRGUM
WEATHER ROUNDUP FOR THE MARIANAS
NATIONAL WEATHER SERVICE TIYAN GU
1200 PM CHST TUE FEB 21 2017

GUZ001>004-210300-
MARIANA ISLANDS-

CITY           SKY/WX    TMP DP  RH WIND       PRES   REMARKS
GUAM AIRPORT   MOSUNNY   84  75  74 E14       30.00F HX  92
ANDERSEN AFB   MOSUNNY   82  75  78 E13       30.01F
ROTA AIRPORT   MOSUNNY   82  73  74 E14       30.00F
TINIAN AP      MOSUNNY   86  75  70 E8        29.99F HX  95
SAIPAN AP      PTSUNNY   82  75  78 E13       30.00F

$$




USA.gov is the U.S. government's official web portal to all federal, state and local government web resources and services.